STARLINK-38233, 100249

Orbit data source: Space-Track

STARLINK-38233, 100249 is a payload satellite owned by SpaceX/Seattle (US) in SSO that was launched on Sat, 08 Aug 2026 UTC launched from the Air Force Western Test Range (AFWTR). Payload-class satellites include a variety of spacecraft equipped with specific instruments for various scientific and technological missions. These include communications satellites like Starlink; space stations such as the ISS; scientific satellites like the Hubble; Earth observation satellites from companies like Planet Labs, Umbra, and HawkEye 360; GPS; miniature CubeSats for education and research; and military/defense satellites.

Loading next visibility...
Identifier
100249, 2026-181D
Orbit
SSO
Country
Flag of USUS
Related business
Manufacturer
SpaceX/Seattle
Mission
Operational spacecraft
Bus & Motor
STARLINK V2MO, Unknown motor
Mass
575 kg wet, ~530 kg dry
Launch date (UTC)
2026-08-08 (1 month ago)
Launch vehicle
Unknown
Launch site
Air Force Western Test Range (AFWTR)
Object type
Payload
Rocket body
Debris
Shape & HBR
BOX + PAN, 17.7 m
Radar Cross Section
RCS unknown

Expand to show TLE details & history
Last TLE update: 7 hours ago

TLE from 7 hours ago
0 STARLINK-38233
1 A0249U 26181D   26249.58860960  .00160587  00000-0  10545-2 0  9992
2 A0249  97.2831 292.3913 0000544  24.5913 335.5378 15.75253952  5714
Epoch: 2026-09-06T14:07Z
TLE epoch observation values (Epoch: 2026-09-06T14:07:35.869Z)
Latitude
-0.00003°
Longitude
94.81028°
Altitude
346.744 km
Speed
7.701 km/s
True Right ascension
19h 29m 33s
True Declination
0° 00' 00"
Sunlit
Object was in full shadow at epoch
Visualization orbit readout
Latitude
Unknown
Longitude
Unknown
Altitude
Unknown
Speed
Unknown
Apparent Right ascension
Unknown
Apparent Declination
Unknown
Sunlit
N/A
Visualization observer readout
Local Sidereal Time
12:43:23
Azimuth
Unknown
Elevation
Unknown
Doppler factor
Unknown
Orbital elements
Apogee altitude
341.161 km
Perigee altitude
340.43 km
Semi-major axis
6,718.933 km
Eccentricity
0.00005
Inclination
97.2831°
RAAN
292.3913°
Arg. of periapsis
24.5913°
True anomaly
335.53522°
Mean anomaly
335.5378°
Eccentric anomaly
335.53651°
Mean motion
3.94088 °/min
Orbital period
91.35 mins
BSTAR
0.0010545
Loading maneuver chart data...
Computing Atmospheric mass density...
Loading historical data...
Loading historical data...
Loading historical data...
Loading historical data...
Loading historical data...
Loading historical data...
Loading historical data...

Documentation

Showing up to 5 results
|